Weather in Karaidel'

Russia / Republic of Bashkortostan     55°49′47″N   56°54′43″E
temp.,
°C
wind,
m/s
gust,
m/s
humid.,
%
clouds,
%
prec.,
mm/h
press.,
hPa
HPBL,
m
28 february, sun
sun2823:00−14ese4109196 0.6 1005277
02:00−13ese4995100 0.4 1004250
05:00−12e4994100 1.4 1003263
08:00−12e4993100 0.7 1003262
11:00−10e3792100 0.8 1003273
14:00−7e479194 0.1 1003397
17:00−7ene379195 0.3 1004450
20:00−11ene389397 0.2 1007332
1 march, mon
mon123:00−13ene379397 0.3 1009272
02:00−15ene279493 0.0 1011239
05:00−16ne269690 0.1 1012234
08:00−16ene269699 0.3 1014250
11:00−14ene239399 0.4 1015308
14:00−10nne118699 0.1 1015465
17:00−10nw239299 0.3 1017347
20:00−14w129894 0.2 101721
2 march, tue
tue223:00−17sw129897 0.3 101824
02:00−19sw229899 0.1 101751
05:00−21ssw2899100 0.1 1016208
08:00−22s31198100 0.0 1014273
11:00−17s41193100 0.1 1012385
14:00−13s6139199 0.0 1008445
17:00−12ssw6139199 0.1 1006518
20:00−14ssw51391100 0.4 1005615
3 march, wed
wed323:00−14s51389100 0.5 1004570
02:00−13s51291100 0.1 1002509
05:00−10s41292100 0.4 1000524
08:00−9s31293100 0.3 998482
11:00−4ssw4992100 0.6 997595
14:00−2sw4795100 0.8 997608
17:00−2wnw3597100 2.3 997433
20:00−7nw4996100 0.7 998427
4 march, thu
thu423:00−9w2297100 0.9 100170
02:00−10w2797100 0.3 1002206
05:00−12wnw2698100 0.5 1004182
08:00−14w2398100 0.1 100567
11:00−11w3694100 0.4 1006396
14:00−8w4891100 0.2 1006678
17:00−8wsw4991100 0.3 1007698
20:00−9sw51293100 0.1 1007671